When you browse on this site, cookies collect data to enhance your experience and personalize the content and advertising you see.
Visit our Privacy Policy to learn more. By continuing to use the site, you agree to this use of cookies and data.
  • In United Kingdom
  • List of Countries
  • For 7 days
  • Water Temperature
  • Weather Map
  • Weather Widgets
  • user-avatar
    Login

    Hourly Weather Belfast

    Today, 25 January, Saturday

    Time Temperature Precipitation Wind Pressure Humidity
    00:00 +7°C° 0 mm 3 mps 761 mmHg 92%
    01:00 +7°C° 0 mm 3 mps 760 mmHg 92%
    02:00 +7°C° 0 mm 3 mps 760 mmHg 92%
    03:00 +6°C° 0 mm 4 mps 759 mmHg 92%
    04:00 +6°C° 0 mm 4 mps 759 mmHg 90%
    05:00 +6°C° 0 mm 4 mps 758 mmHg 89%
    06:00 +6°C° 0 mm 4 mps 758 mmHg 88%
    07:00 +6°C° 0 mm 4 mps 758 mmHg 87%
    08:00 +6°C° 0 mm 4 mps 758 mmHg 87%
    09:00 +6°C° 0 mm 4 mps 757 mmHg 87%
    10:00 +6°C° 0 mm 5 mps 757 mmHg 86%
    11:00 +7°C° 0 mm 5 mps 757 mmHg 85%
    12:00 +7°C° 0 mm 5 mps 756 mmHg 83%
    13:00 +7°C° 0 mm 5 mps 756 mmHg 82%
    14:00 +7°C° 0 mm 5 mps 755 mmHg 81%
    15:00 +7°C° 0 mm 5 mps 755 mmHg 80%
    16:00 +7°C° 0 mm 5 mps 754 mmHg 82%
    17:00 +7°C° 0 mm 6 mps 754 mmHg 83%
    18:00 +5°C° 0 mm 6 mps 753 mmHg 85%
    19:00 +5°C° 0 mm 6 mps 753 mmHg 85%
    20:00 +4°C° 0 mm 6 mps 753 mmHg 85%
    21:00 +4°C° 0 mm 6 mps 752 mmHg 86%
    22:00 +4°C° 0 mm 6 mps 752 mmHg 86%
    23:00 +3°C° 0 mm 6 mps 751 mmHg 87%

    Tomorrow, 26 January, Sunday

    Time Temperature Precipitation Wind Pressure Humidity
    00:00 +3°C° 0 mm 6 mps 750 mmHg 87%
    01:00 +4°C° 0 mm 7 mps 750 mmHg 87%
    02:00 +4°C° 0 mm 7 mps 749 mmHg 86%
    03:00 +5°C° 0 mm 7 mps 748 mmHg 86%
    04:00 +5°C° 0.5 mm 8 mps 748 mmHg 88%
    05:00 +5°C° 0.5 mm 8 mps 747 mmHg 91%
    06:00 +6°C° 0.5 mm 8 mps 746 mmHg 94%
    07:00 +5°C° 0.6 mm 7 mps 747 mmHg 92%
    08:00 +5°C° 0.6 mm 6 mps 747 mmHg 91%
    09:00 +4°C° 0.6 mm 6 mps 747 mmHg 89%
    10:00 +4°C° 0 mm 6 mps 747 mmHg 85%
    11:00 +5°C° 0 mm 5 mps 748 mmHg 81%
    12:00 +3°C° 0 mm 5 mps 748 mmHg 76%
    13:00 +3°C° 0 mm 5 mps 748 mmHg 77%
    14:00 +3°C° 0 mm 6 mps 748 mmHg 77%
    15:00 +3°C° 0 mm 6 mps 748 mmHg 77%
    16:00 +2°C° 0 mm 5 mps 748 mmHg 80%
    17:00 +1°C° 0 mm 4 mps 748 mmHg 83%
    18:00 +1°C° 0 mm 3 mps 748 mmHg 86%
    19:00 0°C° 0 mm 4 mps 747 mmHg 85%
    20:00 0°C° 0 mm 5 mps 747 mmHg 85%
    21:00 0°C° 0 mm 5 mps 747 mmHg 84%
    22:00 -1°C° 0.1 mm 6 mps 746 mmHg 85%
    23:00 0°C° 0.1 mm 7 mps 745 mmHg 86%

    Day after tomorrow, 27 January, Monday

    Time Temperature Precipitation Wind Pressure Humidity
    00:00 0°C° 0.1 mm 8 mps 744 mmHg 87%
    01:00 0°C° 0 mm 7 mps 744 mmHg 87%
    02:00 0°C° 0 mm 7 mps 743 mmHg 88%
    03:00 -1°C° 0 mm 6 mps 743 mmHg 88%
    04:00 -1°C° 0.1 mm 7 mps 742 mmHg 89%
    05:00 0°C° 0.1 mm 7 mps 742 mmHg 89%
    06:00 0°C° 0.1 mm 8 mps 742 mmHg 90%
    07:00 -1°C° 0 mm 7 mps 742 mmHg 87%
    08:00 -1°C° 0 mm 7 mps 742 mmHg 85%
    09:00 -2°C° 0 mm 7 mps 742 mmHg 82%
    10:00 -1°C° 0 mm 7 mps 742 mmHg 78%
    11:00 0°C° 0 mm 8 mps 741 mmHg 74%
    12:00 +1°C° 0 mm 9 mps 741 mmHg 70%
    13:00 +1°C° 0 mm 8 mps 741 mmHg 71%
    14:00 +2°C° 0 mm 7 mps 740 mmHg 71%
    15:00 +2°C° 0 mm 7 mps 740 mmHg 72%
    16:00 +1°C° 0 mm 5 mps 740 mmHg 76%
    17:00 0°C° 0 mm 4 mps 739 mmHg 80%
    18:00 0°C° 0 mm 3 mps 739 mmHg 84%
    19:00 0°C° 0.2 mm 3 mps 738 mmHg 87%
    20:00 +1°C° 0.2 mm 2 mps 738 mmHg 90%
    21:00 +1°C° 0.2 mm 2 mps 738 mmHg 92%
    22:00 0°C° 1.5 mm 3 mps 738 mmHg 93%
    23:00 -1°C° 1.5 mm 4 mps 738 mmHg 93%

    28 January, Tuesday

    Time Temperature Precipitation Wind Pressure Humidity
    00:00 -1°C° 1.5 mm 5 mps 738 mmHg 94%
    01:00 -2°C° 0 mm 5 mps 738 mmHg 93%
    02:00 -4°C° 0 mm 5 mps 738 mmHg 92%
    03:00 -4°C° 0 mm 5 mps 738 mmHg 90%
    04:00 -4°C° 0 mm 5 mps 738 mmHg 90%
    05:00 -3°C° 0 mm 6 mps 738 mmHg 90%
    06:00 -3°C° 0 mm 6 mps 738 mmHg 90%
    07:00 -3°C° 0 mm 6 mps 738 mmHg 90%
    08:00 -2°C° 0 mm 6 mps 738 mmHg 91%
    09:00 -2°C° 0 mm 6 mps 738 mmHg 91%
    10:00 -2°C° 0 mm 6 mps 739 mmHg 91%
    11:00 -1°C° 0 mm 6 mps 739 mmHg 90%
    12:00 0°C° 0 mm 7 mps 739 mmHg 90%
    13:00 0°C° 0.1 mm 7 mps 739 mmHg 88%
    14:00 0°C° 0.1 mm 7 mps 739 mmHg 86%
    15:00 0°C° 0.1 mm 7 mps 740 mmHg 84%
    16:00 -1°C° 0 mm 7 mps 740 mmHg 84%
    17:00 -2°C° 0 mm 7 mps 740 mmHg 84%
    18:00 -3°C° 0 mm 6 mps 741 mmHg 84%
    19:00 -3°C° 0 mm 7 mps 741 mmHg 86%
    20:00 -3°C° 0 mm 7 mps 741 mmHg 87%
    21:00 -2°C° 0 mm 7 mps 742 mmHg 89%
    22:00 -2°C° 0 mm 7 mps 742 mmHg 88%
    23:00 -1°C° 0 mm 8 mps 743 mmHg 87%

    29 January, Wednesday

    Time Temperature Precipitation Wind Pressure Humidity
    00:00 0°C° 0 mm 8 mps 743 mmHg 86%
    01:00 0°C° 0 mm 8 mps 744 mmHg 87%
    02:00 -1°C° 0 mm 8 mps 744 mmHg 87%
    03:00 -1°C° 0 mm 8 mps 744 mmHg 87%
    04:00 -1°C° 0 mm 8 mps 745 mmHg 89%
    05:00 -1°C° 0 mm 8 mps 745 mmHg 91%
    06:00 -2°C° 0 mm 8 mps 745 mmHg 93%
    07:00 -1°C° 0.1 mm 8 mps 746 mmHg 91%
    08:00 -1°C° 0.1 mm 8 mps 746 mmHg 90%
    09:00 -1°C° 0.1 mm 8 mps 747 mmHg 88%
    10:00 0°C° 0 mm 8 mps 747 mmHg 86%
    11:00 0°C° 0 mm 7 mps 747 mmHg 83%
    12:00 +2°C° 0 mm 7 mps 748 mmHg 81%
    13:00 +2°C° 0 mm 7 mps 748 mmHg 83%
    14:00 +2°C° 0 mm 6 mps 748 mmHg 86%
    15:00 +2°C° 0 mm 6 mps 748 mmHg 88%
    16:00 +1°C° 0.9 mm 4 mps 748 mmHg 92%
    17:00 +2°C° 0.9 mm 3 mps 747 mmHg 95%
    18:00 +2°C° 0.9 mm 2 mps 747 mmHg 99%
    19:00 +2°C° 0.6 mm 2 mps 748 mmHg 99%
    20:00 +2°C° 0.6 mm 2 mps 748 mmHg 99%
    21:00 +2°C° 0.6 mm 2 mps 748 mmHg 98%
    22:00 +2°C° 0 mm 2 mps 749 mmHg 98%
    23:00 +3°C° 0 mm 2 mps 749 mmHg 98%

    30 January, Thursday

    Time Temperature Precipitation Wind Pressure Humidity
    00:00 +3°C° 0 mm 2 mps 749 mmHg 98%
    01:00 +3°C° 0 mm 2 mps 749 mmHg 97%
    02:00 +2°C° 0 mm 3 mps 750 mmHg 97%
    03:00 +2°C° 0 mm 3 mps 750 mmHg 96%
    04:00 +3°C° 0.4 mm 3 mps 750 mmHg 96%
    05:00 +4°C° 0.4 mm 4 mps 750 mmHg 96%
    06:00 +5°C° 0.4 mm 4 mps 749 mmHg 96%
    07:00 +5°C° 0 mm 5 mps 749 mmHg 96%
    08:00 +5°C° 0 mm 5 mps 749 mmHg 96%
    09:00 +5°C° 0 mm 5 mps 749 mmHg 96%
    10:00 +4°C° 0 mm 6 mps 750 mmHg 95%
    11:00 +4°C° 0 mm 6 mps 750 mmHg 94%
    12:00 +5°C° 0 mm 6 mps 750 mmHg 93%
    13:00 +5°C° 0 mm 6 mps 750 mmHg 92%
    14:00 +5°C° 0 mm 6 mps 749 mmHg 91%
    15:00 +5°C° 0 mm 6 mps 749 mmHg 90%
    16:00 +5°C° 0 mm 7 mps 749 mmHg 91%
    17:00 +4°C° 0 mm 7 mps 748 mmHg 91%
    18:00 +4°C° 0 mm 7 mps 748 mmHg 91%
    19:00 +5°C° 0 mm 7 mps 748 mmHg 92%
    20:00 +5°C° 0 mm 7 mps 749 mmHg 92%
    21:00 +5°C° 0 mm 7 mps 749 mmHg 93%
    22:00 +5°C° 0 mm 7 mps 749 mmHg 94%
    23:00 +5°C° 0 mm 6 mps 749 mmHg 94%
    Show more